SCP
0 0 0 0 0 0 0 0 0 0 0 0 0 0 0 0 0 0 0 0 0 0 0 0 0 0 0 0 0 0 0 0 0 0 0 0 0 0 0 0 0 0 0
0 0 0 0 0 0 0 0 0 0 0 0 0 0 0 0 0 0 0 0 0 0 0 0 0 0 0 0 0 0 0 0 0 0 0 0 0 0 0 0 0 0 0
0 0 0 0 0 0 0 0 0 0 0 0 0 0 0 0 0 0 0 0 0 0 0 0 0 0 0 0 0 0 0 0 0 0 0 0 0 0 0 0 0 0 0
0 0 0 0 0 0 0 0 0 0 0 0 0 0 0 0 0 0 0 0 0 0 0 0 0 0 0 0 0 0 0 0 0 0 0 0 0 0 0 0 0 0 0
0 0 0 0 0 0 0 0 0 0 0 0 0 0 0 0 0 0 0 0 0 0 0 0 0 0 0 0 0 0 0 0 0 0 0 0 0 0 0 0 0 0 0
0 0 0 0 0 0 0 0 0 0 0 0 0 0 0 0 0 0 0 0 0 0 0 0 0 0 0 0 0 0 0 0 0 0 0 0 0 0 0 0 0 0 0
0 0 0 0 0 0 0 0 0 0 0 0 0 0 0 0 0 0 0 0 0 0 0 0 0 0 0 0 0 0 0 0 0 0 0 0 0 0 0 0 0 0 0
0 0 0 0 0 0 0 0 0 0 0 0 0 0 0 0 0 0 0 0 0 0 0 0 0 0 0 0 0 0 0 0 0 0 0 0 0 0 0 0 0 0 0
0 0 0 0 0 0 0 0 0 0 0 0 0 0 0 0 0 0 0 0 0 0 0 0 0 0 0 0 0 0 0 0 0 0 0 0 0 0 0 0 0 0 0
0 0 0 0 0 0 0 0 0 0 0 0 0 0 0 0 0 0 0 0 0 0 0 0 0 0 0 0 0 0 0 0 0 0 0 0 0 0 0 0 0 0 0
0 0 0 0 0 0 0 0 0 0 0 0 0 0 0 0 0 0 0 0 0 0 0 0 0 0 0 0 0 0 0 0 0 0 0 0 0 0 0 0 0 0 0
0 0 0 0 0 0 0 0 0 0 0 0 0 0 0 0 0 0 0 0 0 0 0 0 0 0 0 0 0 0 0 0 0 0 0 0 0 0 0 0 0 0 0
0 0 0 0 0 0 0 0 0 0 0 0 0 0 0 0 0 0 0 0 0 0 0 0 0 0 0 0 0 0 0 0 0 0 0 0 0 0 0 0 0 0 0
0 0 0 0 0 0 0 0 0 0 0 0 0 0 0 0 0 0 0 0 0 0 0 0 0 0 0 0 0 0 0 0 0 0 0 0 0 0 0 0 0 0 0
0 0 0 0 0 0 0 0 0 0 0 0 0 0 0 0 0 0 0 0 0 0 0 0 0 0 0 0 0 0 0 0 0 0 0 0 0 0 0 0 0 0 0
0 0 0 0 0 0 0 0 0 0 0 0 0 0 0 0 0 0 0 0 0 0 0 0 0 0 0 0 0 0 0 0 0 0 0 0 0 0 0 0 0 0 0
0 0 0 0 0 0 0 0 0 0 0 0 0 0 0 0 0 0 0 0 0 0 0 0 0 0 0 0 0 0 0 0 0 0 0 0 0 0 0 0 0 0 0
0 0 0 0 0 0 0 0 0 0 0 0 0 0 0 0 0 0 0 0 0 0 0 0 0 0 0 0 0 0 0 0 0 0 0 0 0 0 0 0 0 0 0
0 0 0 0 0 0 0 0 0 0 0 0 0 0 0 0 0 0 0 0 0 0 0 0 0 0 0 0 0 0 0 0 0 0 0 0 0 0 0 0 0 0 0
0 0 0 0 0 0 0 0 0 0 0 0 0 0 0 0 0 0 0 0 0 0 0 0 0 0 0 0 0 0 0 0 0 0 0 0 0 0 0 0 0 0 0
0 0 0 0 0 0 0 0 0 0 0 0 0 0 0 0 0 0 0 0 0 0 0 0 0 0 0 0 0 0 0 0 0 0 0 0 0 0 0 0 0 0 0
0 0 0 0 0 0 0 0 0 0 0 0 0 0 0 0 0 0 0 0 0 0 0 0 0 0 0 0 0 0 0 0 0 0 0 0 0 0 0 0 0 0 0
0 0 0 0 0 0 0 0 0 0 0 0 0 0 0 0 0 0 0 0 0 0 0 0 0 0 0 0 0 0 0 0 0 0 0 0 0 0 0 0 0 0 0
0 0 0 0 0 0 0 0 0 0 0 0 0 0 0 0 0 0 0 0 0 0 0 0 0 0 0 0 0 0 0 0 0 0 0 0 0 0 0 0 0 0 0
0 0 0 0 0 0 0 0 0 0 0 0 0 0 0 0 0 0 0 0 0 0 0 0 0 0 0 0 0 0 0 0 0 0 0 0 0 0 0 0 0 0 0
0 0 0 0 0 0 0 0 0 0 0 0 0 0 0 0 0 0 0 0 0 0 0 0 0 0 0 0 0 0 0 0 0 0 0 0 0 0 0 0 0 0 0
Wind_Speed
3 3 2 3 3 3 3 3 2 3 3 3 3 4 4 4 5 5 4 8 8 9 9 9 8 8 8 8 8 8 8 8 8 8 8 7 7 7 7 7 7 7 7
3 3 3 3 3 3 3 2 3 3 3 3 3 3 4 4 4 5 4 5 7 7 8 8 7 7 7 7 7 7 7 7 6 7 7 7 7 7 7 7 6 6 6
4 3 3 3 3 3 3 3 3 3 3 3 3 3 3 3 4 4 4 3 3 5 7 7 7 7 6 6 6 6 6 6 6 6 6 6 6 6 6 6 6 6 5
4 4 3 3 3 3 3 3 3 3 3 3 3 2 3 3 4 4 4 3 3 3 4 6 7 6 6 5 5 5 6 6 5 5 5 5 5 5 5 6 6 5 5
4 4 3 3 3 3 3 3 3 3 4 3 3 3 3 2 2 3 4 4 3 3 3 4 5 5 5 4 4 4 4 4 5 4 4 4 4 4 5 5 5 5 5
4 4 3 4 4 3 3 3 4 4 3 3 3 3 2 2 2 2 3 3 2 3 3 3 2 2 3 3 3 3 3 3 3 4 4 3 4 4 4 4 4 5 5
4 4 4 4 4 3 4 4 4 5 3 3 3 2 2 2 2 1 2 2 2 2 2 2 2 1 1 3 2 2 2 2 2 2 2 2 2 3 3 4 4 4 4
5 5 5 4 4 3 4 5 5 4 3 3 3 3 1 1 1 1 1 2 2 2 2 2 2 2 1 1 1 2 2 1 1 1 1 1 1 1 2 2 2 3 4
5 5 5 5 5 4 4 5 5 5 4 2 2 3 3 2 1 0 1 1 2 2 1 2 2 1 1 1 1 1 1 1 1 1 0 0 0 0 1 1 2 2 3
5 5 5 5 5 4 4 4 4 4 5 4 2 1 2 3 3 1 1 1 1 2 2 1 1 1 1 1 1 1 1 0 1 2 2 1 1 1 1 1 2 2 2
5 5 6 5 5 4 4 4 4 4 4 4 3 2 1 1 2 3 2 1 1 1 2 2 2 1 1 1 1 1 1 0 2 2 2 1 2 2 2 2 2 2 3
4 5 5 5 5 4 5 4 5 5 3 3 3 2 2 2 2 2 2 2 2 2 2 1 2 2 1 1 1 1 1 0 2 2 2 2 2 3 4 4 3 3 3
4 5 4 4 4 4 4 4 4 4 4 4 4 3 2 2 2 2 2 2 1 1 1 1 2 2 1 1 1 2 1 1 1 2 2 2 3 3 4 5 5 4 4
4 5 5 5 4 5 4 4 4 4 3 3 3 3 2 2 2 2 2 2 1 1 1 2 1 2 1 1 1 2 1 1 1 2 3 3 3 3 4 4 5 4 4
3 6 6 5 5 5 4 4 3 4 4 4 3 3 2 2 2 2 2 3 3 2 3 3 1 2 1 1 2 2 2 2 1 2 3 3 3 3 4 4 4 4 4
3 5 5 5 5 5 5 4 4 4 4 4 3 3 2 2 2 2 2 2 2 3 2 2 2 1 1 1 2 1 1 2 2 3 3 4 4 4 3 3 4 4 5
3 5 5 5 5 5 5 5 4 4 5 4 4 4 4 3 2 2 2 2 2 2 3 1 1 1 1 1 1 1 1 1 1 3 4 3 4 4 4 3 4 4 5
2 3 4 4 4 5 5 5 5 5 5 5 5 4 4 3 3 3 3 3 3 3 3 3 2 2 2 2 1 1 1 1 1 3 4 4 4 4 4 4 4 4 4
2 2 4 4 4 4 5 5 5 5 5 5 5 5 5 4 4 3 3 3 3 2 2 3 2 2 1 1 1 1 1 1 1 2 4 4 4 5 5 5 4 4 4
2 3 3 4 4 4 4 4 4 4 4 4 4 5 5 5 5 5 4 4 3 3 3 3 2 2 1 1 1 1 1 1 2 2 3 3 4 5 5 5 5 5 5
1 2 2 3 3 3 4 4 4 4 4 4 4 4 4 5 5 5 4 4 4 3 3 3 3 2 2 2 2 2 2 1 2 1 1 2 2 2 3 5 5 5 5
1 1 2 3 3 2 4 5 4 4 4 4 4 4 3 4 5 5 5 5 6 5 5 4 3 4 3 3 2 2 1 1 2 1 1 2 1 2 2 2 4 6 6
1 1 1 2 2 3 4 4 4 4 4 4 4 4 3 2 3 3 3 3 3 4 5 4 4 4 4 3 3 3 2 2 2 2 1 3 2 3 2 3 5 5 5
1 1 1 1 1 2 3 4 3 3 3 3 4 4 4 3 3 3 3 3 2 1 2 2 3 3 2 2 3 3 3 1 1 1 0 2 2 2 2 2 4 4 5
1 1 1 1 1 1 3 4 4 3 2 2 2 3 4 4 5 4 4 3 2 1 1 2 2 2 2 3 2 2 1 1 2 2 1 1 2 2 2 2 3 4 5
1 1 1 1 1 1 1 3 4 2 2 2 2 2 4 4 5 5 4 4 4 2 2 2 2 2 2 2 2 2 2 2 1 2 1 1 1 1 3 2 2 2 3
Wind_Direction
132 127 132 137 139 137 138 138 126 115 100 93 93 94 91 90 95 96 94 93 92 93 94 93 93 94 92 94 93 88 82 77 73 70 67 67 65 62 64 64 63 63 65
134 136 128 129 130 130 129 128 120 109 96 93 85 83 92 94 95 103 107 98 93 94 93 91 89 86 87 91 91 89 85 81 76 72 65 64 64 61 59 58 58 60 65
139 137 132 131 137 132 127 114 107 100 100 97 92 84 83 88 94 97 104 107 104 97 94 92 87 82 83 92 92 86 85 82 77 73 67 64 64 60 56 54 52 54 57
142 136 136 140 140 130 129 126 118 110 102 98 92 79 75 80 89 92 90 90 92 99 94 92 86 81 78 85 89 85 81 77 75 75 69 63 65 59 53 52 50 47 44
141 137 141 141 137 132 130 131 121 119 116 108 103 87 75 71 74 89 92 91 91 96 105 100 89 81 76 80 85 84 82 77 73 72 68 63 66 60 54 45 41 38 39
141 137 138 141 135 135 133 127 128 116 120 122 107 89 84 86 73 85 99 99 100 105 106 107 102 86 82 79 79 80 85 86 76 73 73 69 63 55 49 44 41 39 33
145 140 140 144 140 145 150 141 128 125 120 116 99 89 60 81 92 93 100 106 108 107 99 98 101 94 90 82 75 70 71 76 78 86 87 80 65 55 51 48 45 40 34
151 151 149 151 146 144 147 146 133 132 139 141 128 126 114 52 354 103 117 125 126 117 117 113 102 88 83 87 61 59 50 40 44 85 105 109 93 71 51 38 34 27 23
153 154 156 149 148 149 158 157 151 146 155 165 144 142 145 181 173 233 174 140 133 125 131 129 117 106 96 95 82 60 49 13 307 312 294 209 248 354 357 360 5 15 14
156 157 157 152 149 153 157 163 157 152 151 162 168 149 144 136 141 160 249 170 147 152 155 145 144 153 128 116 105 91 90 15 278 291 295 286 278 287 303 335 346 349 350
158 161 158 158 156 159 163 165 161 159 162 163 164 163 139 99 118 144 185 203 211 205 177 168 162 165 156 141 143 125 126 247 262 272 294 315 327 333 325 330 329 332 331
158 160 159 160 162 162 169 173 168 170 173 169 166 160 156 158 174 158 168 186 204 216 199 181 170 176 177 165 163 153 152 225 259 266 279 304 322 329 339 328 310 312 316
160 164 161 164 164 165 170 170 167 172 174 174 178 178 176 181 166 156 157 172 178 207 188 204 196 176 174 165 178 176 170 183 258 266 275 295 308 313 319 321 311 312 320
164 164 166 164 165 165 169 173 169 177 173 177 185 183 183 193 175 160 162 156 164 220 210 229 204 187 178 163 181 172 176 203 243 270 276 288 293 300 303 307 311 308 317
157 161 165 166 170 167 172 170 171 180 179 185 189 189 189 195 186 179 164 161 167 198 230 221 205 202 182 162 191 170 174 206 235 274 285 294 291 288 292 302 311 309 308
159 160 164 167 169 170 173 177 177 178 179 189 183 184 195 191 181 178 178 184 185 181 214 211 199 180 169 194 196 176 193 221 244 260 273 287 297 292 289 295 301 301 303
163 161 167 169 171 170 170 176 182 179 188 192 188 190 199 187 182 187 184 187 202 183 208 242 182 148 159 190 212 202 198 212 246 259 259 273 289 291 287 287 290 293 299
173 168 167 169 170 168 169 174 182 185 188 189 190 189 196 189 193 195 193 202 207 197 188 216 209 180 196 197 197 213 250 248 243 265 261 269 277 279 281 285 290 292 295
180 178 173 169 171 171 176 181 180 186 189 190 188 189 191 188 198 200 199 202 202 200 188 194 206 196 185 181 195 263 270 270 265 265 260 263 271 276 278 279 281 281 285
181 185 181 176 174 172 175 178 180 187 189 190 189 191 191 193 198 199 201 201 190 185 179 181 194 189 193 183 167 224 268 263 267 273 264 265 272 276 273 272 275 278 282
196 186 174 169 165 168 174 175 184 190 190 191 191 192 194 198 201 200 202 195 185 183 178 181 192 193 199 189 205 208 238 259 273 251 259 265 265 266 264 268 269 271 275
142 150 168 169 169 178 175 179 185 186 189 191 195 195 195 194 193 198 203 198 191 187 187 189 199 200 209 209 199 201 206 246 273 261 253 272 238 254 258 249 266 272 275
97 114 153 167 167 173 173 179 195 190 186 192 194 189 190 192 183 179 186 184 187 196 196 193 198 208 206 207 194 204 216 229 247 246 267 273 258 259 262 265 269 276 283
122 113 128 159 170 188 181 176 188 192 187 188 189 187 184 182 175 165 158 158 168 197 209 203 199 206 202 190 196 203 200 209 296 283 247 269 279 274 283 272 264 273 292
118 112 129 135 171 212 202 189 189 186 180 185 185 184 181 180 177 168 163 166 164 166 81 125 137 144 146 150 156 142 156 187 265 270 245 250 281 297 289 268 265 281 294
127 120 86 110 158 192 199 188 190 179 176 173 168 176 184 186 181 176 177 175 186 193 154 124 111 102 124 137 148 179 186 201 244 258 235 229 281 331 305 289 282 284 285